Location: Maiden
(35.5760°N, 81.2120°W)
Time: 02:12:20
(UTC-04:00)

GP-B - Pass Details

Date: 02 August 2020
Orbit: 631 x 635 km, 89.8° (Epoch: 11 August)

Event Time Altitude Azimuth Distance (km) Brightness Sun altitude
Rises 23:21:28 0° 355° (N) 2,929 7.4 -28.8°
Reaches altitude 10° 23:23:45 10° 350° (N) 2,018 6.5 -29.0°
Enters shadow 23:27:14 43° 309° (NW) 890 4.2 -29.4°
